Location: Platte
(43.3870°N, 98.8440°W)
Time: 17:00:23
(UTC-05:00)

Meteor 2-4 Rocket - Pass Details

Date: 21 May 2018
Orbit: 799 x 909 km, 81.2° (Epoch: 15 August)

Event Time Altitude Azimuth Distance (km) Brightness Sun altitude
Exits shadow 23:28:10 13° 211° (SSW) 2,153 5.5 -20.2°
Maximum altitude 23:32:46 51° 285° (WNW) 1,031 4.4 -20.6°
Drops below altitude 10° 23:38:10 10° 1° (N) 2,461 7.0 -21.1°
Sets 23:40:42 0° 6° (N) 3,418 7.8 -21.3°
